Location: Unspecified
(48.2082°N, 0.0000°E)
Time: 16:49:52
(UTC+00:00)

S-56A Canister/Altair - Pass Details

Date: 24 June 2019
Orbit: 632 x 2500 km, 38.9° (Epoch: 20 July)

Event Time Altitude Azimuth Distance (km) Brightness Sun altitude
Rises 20:43:37 0° 267° (W) 3,682 11.7 -5.7°
Reaches altitude 10° 20:48:51 10° 231° (SW) 2,344 10.1 -6.3°
Maximum altitude 20:50:00 11° 218° (SW) 2,229 9.8 -6.4°
Drops below altitude 10° 20:51:05 10° 205° (SSW) 2,212 9.7 -6.6°
Enters shadow 20:54:21 - 173° (S) 2,687 9.8 -6.9°
Sets 20:55:21 0° 166° (SSE) 2,949 - -7.0°
